Location: Vancouver
(49.2500°N, 123.1330°W)
Time: 02:15:10
(UTC-07:00)

S-56A Canister/Altair - Visible Passes

Search period start: 26 March 2017 00:00
Search period end: 05 April 2017 00:00
Orbit: 639 x 2495 km, 38.9° (Epoch: 24 March)

Date Brightness Start Highest point End Pass type
(mag) Time Alt. Az. Time Alt. Az. Time Alt. Az.
27 Mar 11.2 06:22:01 10° S 06:29:09 18° SSE 06:35:04 10° ESE visible
28 Mar 11.3 05:49:31 10° S 05:56:28 17° SE 06:02:22 10° ESE visible
29 Mar 11.3 05:17:11 10° S 05:23:46 15° SE 05:29:29 10° ESE visible
30 Mar 11.4 04:45:04 10° SSE 04:51:02 14° SE 04:56:23 10° ESE visible
31 Mar 11.4 04:13:15 10° SSE 04:18:18 13° SE 04:22:57 10° ESE visible
31 Mar 10.7 06:11:23 10° SSW 06:22:20 31° SSE 06:30:45 10° E visible
01 Apr 11.5 03:42:03 10° SSE 03:45:34 11° SE 03:48:54 10° ESE visible
01 Apr 10.8 05:38:26 10° SSW 05:49:31 29° SSE 05:58:16 10° E visible
02 Apr 10.8 05:05:35 10° SSW 05:16:40 28° SSE 05:25:41 10° E visible
03 Apr 10.9 04:33:20 11° SSW 04:43:47 26° SSE 04:52:59 10° E visible
04 Apr 10.9 04:02:36 15° S 04:10:54 25° SE 04:20:09 10° E visible
04 Apr 10.3 06:02:31 10° SW 06:15:28 43° SSE 06:25:16 10° E visible
